Year,Month,Day,Hour,Minute,Value (Times are PST for temperature in C)
2022,03,29,00,00,7.70
2022,03,29,00,01,7.70
2022,03,29,00,02,7.70
2022,03,29,00,03,7.60
2022,03,29,00,04,7.60
2022,03,29,00,05,7.60
2022,03,29,00,06,7.60
2022,03,29,00,07,7.60
2022,03,29,00,08,7.60
2022,03,29,00,09,7.60
2022,03,29,00,10,7.60
2022,03,29,00,11,7.60
2022,03,29,00,12,7.60
2022,03,29,00,13,7.50
2022,03,29,00,14,7.50
2022,03,29,00,15,7.50
2022,03,29,00,16,7.50
2022,03,29,00,17,7.50
2022,03,29,00,18,7.50
2022,03,29,00,19,7.60
2022,03,29,00,20,7.60
2022,03,29,00,21,7.60
2022,03,29,00,22,7.60
2022,03,29,00,23,7.60
2022,03,29,00,24,7.60
2022,03,29,00,25,7.60
2022,03,29,00,26,7.60
2022,03,29,00,27,7.60
2022,03,29,00,28,7.50
2022,03,29,00,29,7.50
2022,03,29,00,30,7.50
2022,03,29,00,31,7.40
2022,03,29,00,32,7.40
2022,03,29,00,33,7.40
2022,03,29,00,34,7.40
2022,03,29,00,35,7.40
2022,03,29,00,36,7.40
2022,03,29,00,37,7.40
2022,03,29,00,38,7.40
2022,03,29,00,39,7.40
2022,03,29,00,40,7.50
2022,03,29,00,41,7.40
2022,03,29,00,42,7.40
2022,03,29,00,43,7.40
2022,03,29,00,44,7.40
2022,03,29,00,45,7.40
2022,03,29,00,46,7.40
2022,03,29,00,47,7.30
2022,03,29,00,48,7.30
2022,03,29,00,49,7.30
2022,03,29,00,50,7.30
2022,03,29,00,51,7.30
2022,03,29,00,52,7.30
2022,03,29,00,53,7.30
2022,03,29,00,54,7.30
2022,03,29,00,55,7.30
2022,03,29,00,56,7.30
2022,03,29,00,57,7.30
2022,03,29,00,58,7.30
2022,03,29,00,59,7.30
2022,03,29,01,00,7.30
2022,03,29,01,01,7.30
2022,03,29,01,02,7.30
2022,03,29,01,03,7.30
2022,03,29,01,04,7.30
2022,03,29,01,05,7.30
2022,03,29,01,06,7.30
2022,03,29,01,07,7.20
2022,03,29,01,08,7.20
2022,03,29,01,09,7.20
2022,03,29,01,10,7.20
2022,03,29,01,11,7.20
2022,03,29,01,12,7.20
2022,03,29,01,13,7.20
2022,03,29,01,14,7.20
2022,03,29,01,15,7.20
2022,03,29,01,16,7.20
2022,03,29,01,17,7.20
2022,03,29,01,18,7.10
2022,03,29,01,19,7.10
2022,03,29,01,20,7.00
2022,03,29,01,21,7.00
2022,03,29,01,22,7.00
2022,03,29,01,23,7.00
2022,03,29,01,24,7.00
2022,03,29,01,25,7.00
2022,03,29,01,26,7.00
2022,03,29,01,27,7.00
2022,03,29,01,28,6.90
2022,03,29,01,29,6.90
2022,03,29,01,30,6.90
2022,03,29,01,31,6.90
2022,03,29,01,32,6.90
2022,03,29,01,33,6.90
2022,03,29,01,34,6.90
2022,03,29,01,35,6.80
2022,03,29,01,36,6.80
2022,03,29,01,37,6.80
2022,03,29,01,38,6.80
2022,03,29,01,39,6.80
2022,03,29,01,40,6.80
2022,03,29,01,41,6.80
2022,03,29,01,42,6.70
2022,03,29,01,43,6.80
2022,03,29,01,44,6.70
2022,03,29,01,45,6.80
2022,03,29,01,46,6.80
2022,03,29,01,47,6.80
2022,03,29,01,48,6.80
2022,03,29,01,49,6.80
2022,03,29,01,50,6.80
2022,03,29,01,51,6.70
2022,03,29,01,52,6.70
2022,03,29,01,53,6.70
2022,03,29,01,54,6.70
2022,03,29,01,55,6.70
2022,03,29,01,56,6.70
2022,03,29,01,57,6.70
2022,03,29,01,58,6.70
2022,03,29,01,59,6.60
2022,03,29,02,00,6.60
2022,03,29,02,01,6.60
2022,03,29,02,02,6.60
2022,03,29,02,03,6.60
2022,03,29,02,04,6.60
2022,03,29,02,05,6.60
2022,03,29,02,06,6.60
2022,03,29,02,07,6.60
2022,03,29,02,08,6.60
2022,03,29,02,09,6.60
2022,03,29,02,10,6.60
2022,03,29,02,11,6.60
2022,03,29,02,12,6.60
2022,03,29,02,13,6.60
2022,03,29,02,14,6.60
2022,03,29,02,15,6.50
2022,03,29,02,16,6.50
2022,03,29,02,17,6.50
2022,03,29,02,18,6.50
2022,03,29,02,19,6.50
2022,03,29,02,20,6.50
2022,03,29,02,21,6.50
2022,03,29,02,22,6.50
2022,03,29,02,23,6.50
2022,03,29,02,24,6.50
2022,03,29,02,25,6.50
2022,03,29,02,26,6.50
2022,03,29,02,27,6.40
2022,03,29,02,28,6.40
2022,03,29,02,29,6.40
2022,03,29,02,30,6.40
2022,03,29,02,31,6.40
2022,03,29,02,32,6.40
2022,03,29,02,33,6.40
2022,03,29,02,34,6.40
2022,03,29,02,35,6.40
2022,03,29,02,36,6.40
2022,03,29,02,37,6.40
2022,03,29,02,38,6.40
2022,03,29,02,39,6.40
2022,03,29,02,40,6.40
2022,03,29,02,41,6.40
2022,03,29,02,42,6.40
2022,03,29,02,43,6.40
2022,03,29,02,44,6.40
2022,03,29,02,45,6.40
2022,03,29,02,46,6.40
2022,03,29,02,47,6.40
2022,03,29,02,48,6.40
2022,03,29,02,49,6.40
2022,03,29,02,50,6.40
2022,03,29,02,51,6.40
2022,03,29,02,52,6.40
2022,03,29,02,53,6.30
2022,03,29,02,54,6.30
2022,03,29,02,55,6.30
2022,03,29,02,56,6.30
2022,03,29,02,57,6.30
2022,03,29,02,58,6.30
2022,03,29,02,59,6.30
2022,03,29,03,00,6.30
2022,03,29,03,01,6.30
2022,03,29,03,02,6.30
2022,03,29,03,03,6.30
2022,03,29,03,04,6.30
2022,03,29,03,05,6.30
2022,03,29,03,06,6.30
2022,03,29,03,07,6.30
2022,03,29,03,08,6.30
2022,03,29,03,09,6.30
2022,03,29,03,10,6.30
2022,03,29,03,11,6.30
2022,03,29,03,12,6.30
2022,03,29,03,13,6.30
2022,03,29,03,14,6.30
2022,03,29,03,15,6.30
2022,03,29,03,16,6.30
2022,03,29,03,17,6.30
2022,03,29,03,18,6.30
2022,03,29,03,19,6.30
2022,03,29,03,20,6.30
2022,03,29,03,21,6.30
2022,03,29,03,22,6.30
2022,03,29,03,23,6.20
2022,03,29,03,24,6.20
2022,03,29,03,25,6.20
2022,03,29,03,26,6.20
2022,03,29,03,27,6.20
2022,03,29,03,28,6.20
2022,03,29,03,29,6.20
2022,03,29,03,30,6.20
2022,03,29,03,31,6.20
2022,03,29,03,32,6.20
2022,03,29,03,33,6.10
2022,03,29,03,34,6.10
2022,03,29,03,35,6.10
2022,03,29,03,36,6.10
2022,03,29,03,37,6.10
2022,03,29,03,38,6.10
2022,03,29,03,39,6.10
2022,03,29,03,40,6.10
2022,03,29,03,41,6.10
2022,03,29,03,42,6.20
2022,03,29,03,43,6.20
2022,03,29,03,44,6.20
2022,03,29,03,45,6.20
2022,03,29,03,46,6.20
2022,03,29,03,47,6.20
2022,03,29,03,48,6.20
2022,03,29,03,49,6.20
2022,03,29,03,50,6.20
2022,03,29,03,51,6.20
2022,03,29,03,52,6.20
2022,03,29,03,53,6.20
2022,03,29,03,54,6.20
2022,03,29,03,55,6.20
2022,03,29,03,56,6.20
2022,03,29,03,57,6.20
2022,03,29,03,58,6.20
2022,03,29,03,59,6.20
2022,03,29,04,00,6.20
2022,03,29,04,01,6.10
2022,03,29,04,02,6.10
2022,03,29,04,03,6.10
2022,03,29,04,04,6.10
2022,03,29,04,05,6.10
2022,03,29,04,06,6.20
2022,03,29,04,07,6.20
2022,03,29,04,08,6.20
2022,03,29,04,09,6.10
2022,03,29,04,10,6.10
2022,03,29,04,11,6.10
2022,03,29,04,12,6.10
2022,03,29,04,13,6.10
2022,03,29,04,14,6.10
2022,03,29,04,15,6.10
2022,03,29,04,16,6.10
2022,03,29,04,17,6.10
2022,03,29,04,18,6.10
2022,03,29,04,19,6.10
2022,03,29,04,20,6.10
2022,03,29,04,21,6.10
2022,03,29,04,22,6.10
2022,03,29,04,23,6.10
2022,03,29,04,24,6.00
2022,03,29,04,25,6.00
2022,03,29,04,26,6.00
2022,03,29,04,27,6.00
2022,03,29,04,28,6.00
2022,03,29,04,29,6.00
2022,03,29,04,30,6.00
2022,03,29,04,31,5.90
2022,03,29,04,32,5.90
2022,03,29,04,33,5.90
2022,03,29,04,34,6.00
2022,03,29,04,35,5.90
2022,03,29,04,36,5.90
2022,03,29,04,37,6.00
2022,03,29,04,38,6.00
2022,03,29,04,39,6.00
2022,03,29,04,40,6.00
2022,03,29,04,41,6.00
2022,03,29,04,42,6.00
2022,03,29,04,43,6.00
2022,03,29,04,44,6.00
2022,03,29,04,45,6.00
2022,03,29,04,46,6.00
2022,03,29,04,47,6.00
2022,03,29,04,48,6.00
2022,03,29,04,49,6.00
2022,03,29,04,50,6.00
2022,03,29,04,51,6.00
2022,03,29,04,52,6.00
2022,03,29,04,53,6.00
2022,03,29,04,54,6.00
2022,03,29,04,55,5.90
2022,03,29,04,56,5.90
2022,03,29,04,57,5.90
2022,03,29,04,58,5.90
2022,03,29,04,59,5.90
2022,03,29,05,00,5.90
2022,03,29,05,01,5.90
2022,03,29,05,02,5.90
2022,03,29,05,03,5.90
2022,03,29,05,04,5.90
2022,03,29,05,05,5.90
2022,03,29,05,06,5.90
2022,03,29,05,07,6.00
2022,03,29,05,08,6.00
2022,03,29,05,09,6.00
2022,03,29,05,10,6.00
2022,03,29,05,11,6.00
2022,03,29,05,12,6.00
2022,03,29,05,13,6.10
2022,03,29,05,14,6.10
2022,03,29,05,15,6.10
2022,03,29,05,16,6.10
2022,03,29,05,17,6.20
2022,03,29,05,18,6.20
2022,03,29,05,19,6.20
2022,03,29,05,20,6.30
2022,03,29,05,21,6.30
2022,03,29,05,22,6.30
2022,03,29,05,23,6.30
2022,03,29,05,24,6.30
2022,03,29,05,25,6.30
2022,03,29,05,26,6.30
2022,03,29,05,27,6.30
2022,03,29,05,28,6.30
2022,03,29,05,29,6.30
2022,03,29,05,30,6.30
2022,03,29,05,31,6.30
2022,03,29,05,32,6.30
2022,03,29,05,33,6.30
2022,03,29,05,34,6.30
2022,03,29,05,35,6.30
2022,03,29,05,36,6.30
2022,03,29,05,37,6.30
2022,03,29,05,38,6.30
2022,03,29,05,39,6.30
2022,03,29,05,40,6.20
2022,03,29,05,41,6.20
2022,03,29,05,42,6.20
2022,03,29,05,43,6.20
2022,03,29,05,44,6.20
2022,03,29,05,45,6.20
2022,03,29,05,46,6.20
2022,03,29,05,47,6.20
2022,03,29,05,48,6.20
2022,03,29,05,49,6.20
2022,03,29,05,50,6.20
2022,03,29,05,51,6.20
2022,03,29,05,52,6.20
2022,03,29,05,53,6.20
2022,03,29,05,54,6.20
2022,03,29,05,55,6.20
2022,03,29,05,56,6.20
2022,03,29,05,57,6.20
2022,03,29,05,58,6.20
2022,03,29,05,59,6.30
2022,03,29,06,00,6.30
2022,03,29,06,01,6.30
2022,03,29,06,02,6.30
2022,03,29,06,03,6.30
2022,03,29,06,04,6.20
2022,03,29,06,05,6.20
2022,03,29,06,06,6.20
2022,03,29,06,07,6.20
2022,03,29,06,08,6.20
2022,03,29,06,09,6.10
2022,03,29,06,10,6.10
2022,03,29,06,11,6.10
2022,03,29,06,12,6.10
2022,03,29,06,13,6.00
2022,03,29,06,14,6.00
2022,03,29,06,15,6.00
2022,03,29,06,16,5.90
2022,03,29,06,17,5.90
2022,03,29,06,18,5.90
2022,03,29,06,19,5.90
2022,03,29,06,20,5.90
2022,03,29,06,21,5.90
2022,03,29,06,22,5.90
2022,03,29,06,23,5.90
2022,03,29,06,24,5.90
2022,03,29,06,25,5.80
2022,03,29,06,26,5.80
2022,03,29,06,27,5.70
2022,03,29,06,28,5.70
2022,03,29,06,29,5.70
2022,03,29,06,30,5.70
2022,03,29,06,31,5.80
2022,03,29,06,32,5.80
2022,03,29,06,33,5.80
2022,03,29,06,34,5.80
2022,03,29,06,35,5.80
2022,03,29,06,36,5.80
2022,03,29,06,37,5.80
2022,03,29,06,38,5.80
2022,03,29,06,39,5.80
2022,03,29,06,40,5.70
2022,03,29,06,41,5.70
2022,03,29,06,42,5.70
2022,03,29,06,43,5.80
2022,03,29,06,44,5.80
2022,03,29,06,45,5.80
2022,03,29,06,46,5.80
2022,03,29,06,47,5.80
2022,03,29,06,48,5.80
2022,03,29,06,49,5.80
2022,03,29,06,50,5.70
2022,03,29,06,51,5.70
2022,03,29,06,52,5.70
2022,03,29,06,53,5.70
2022,03,29,06,54,5.70
2022,03,29,06,55,5.70
2022,03,29,06,56,5.70
2022,03,29,06,57,5.70
2022,03,29,06,58,5.70
2022,03,29,06,59,5.80
2022,03,29,07,00,5.80
2022,03,29,07,01,5.80
2022,03,29,07,02,5.80
2022,03,29,07,03,5.80
2022,03,29,07,04,5.80
2022,03,29,07,05,5.70
2022,03,29,07,06,5.70
2022,03,29,07,07,5.70
2022,03,29,07,08,5.70
2022,03,29,07,09,5.70
2022,03,29,07,10,5.70
2022,03,29,07,11,5.70
2022,03,29,07,12,5.70
2022,03,29,07,13,5.70
2022,03,29,07,14,5.70
2022,03,29,07,15,5.70
2022,03,29,07,16,5.80
2022,03,29,07,17,5.80
2022,03,29,07,18,5.80
2022,03,29,07,19,5.80
2022,03,29,07,20,5.80
2022,03,29,07,21,5.80
2022,03,29,07,22,5.80
2022,03,29,07,23,5.80
2022,03,29,07,24,5.80
2022,03,29,07,25,5.80
2022,03,29,07,26,5.80
2022,03,29,07,27,5.80
2022,03,29,07,28,5.80
2022,03,29,07,29,5.80
2022,03,29,07,30,5.80
2022,03,29,07,31,5.80
2022,03,29,07,32,5.80
2022,03,29,07,33,5.80
2022,03,29,07,34,5.80
2022,03,29,07,35,5.80
2022,03,29,07,36,5.90
2022,03,29,07,37,5.90
2022,03,29,07,38,5.90
2022,03,29,07,39,5.90
2022,03,29,07,40,6.00
2022,03,29,07,41,6.00
2022,03,29,07,42,6.00
2022,03,29,07,43,6.00
2022,03,29,07,44,6.00
2022,03,29,07,45,6.10
2022,03,29,07,46,6.10
2022,03,29,07,47,6.10
2022,03,29,07,48,6.20
2022,03,29,07,49,6.20
2022,03,29,07,50,6.20
2022,03,29,07,51,6.20
2022,03,29,07,52,6.20
2022,03,29,07,53,6.30
2022,03,29,07,54,6.30
2022,03,29,07,55,6.30
2022,03,29,07,56,6.30
2022,03,29,07,57,6.30
2022,03,29,07,58,6.40
2022,03,29,07,59,6.40
2022,03,29,08,00,6.50
2022,03,29,08,01,6.60
2022,03,29,08,02,6.60
2022,03,29,08,03,6.60
2022,03,29,08,04,6.70
2022,03,29,08,05,6.70
2022,03,29,08,06,6.70
2022,03,29,08,07,6.80
2022,03,29,08,08,6.80
2022,03,29,08,09,6.80
2022,03,29,08,10,6.80
2022,03,29,08,11,6.80
2022,03,29,08,12,6.90
2022,03,29,08,13,6.90
2022,03,29,08,14,7.00
2022,03,29,08,15,7.10
2022,03,29,08,16,7.10
2022,03,29,08,17,7.20
2022,03,29,08,18,7.30
2022,03,29,08,19,7.30
2022,03,29,08,20,7.40
2022,03,29,08,21,7.40
2022,03,29,08,22,7.50
2022,03,29,08,23,7.50
2022,03,29,08,24,7.60
2022,03,29,08,25,7.60
2022,03,29,08,26,7.70
2022,03,29,08,27,7.70
2022,03,29,08,28,7.70
2022,03,29,08,29,7.80
2022,03,29,08,30,7.80
2022,03,29,08,31,7.90
2022,03,29,08,32,7.90
2022,03,29,08,33,7.90
2022,03,29,08,34,7.90
2022,03,29,08,35,8.00
2022,03,29,08,36,8.10
2022,03,29,08,37,8.10
2022,03,29,08,38,8.10
2022,03,29,08,39,8.20
2022,03,29,08,40,8.20
2022,03,29,08,41,8.20
2022,03,29,08,42,8.30
2022,03,29,08,43,8.30
2022,03,29,08,44,8.30
2022,03,29,08,45,8.30
2022,03,29,08,46,8.30
2022,03,29,08,47,8.40
2022,03,29,08,48,8.40
2022,03,29,08,49,8.40
2022,03,29,08,50,8.40
2022,03,29,08,51,8.40
2022,03,29,08,52,8.40
2022,03,29,08,53,8.50
2022,03,29,08,54,8.60
2022,03,29,08,55,8.70
2022,03,29,08,56,8.70
2022,03,29,08,57,8.80
2022,03,29,08,58,8.80
2022,03,29,08,59,8.80
2022,03,29,09,00,8.90
2022,03,29,09,01,8.90
2022,03,29,09,02,8.90
2022,03,29,09,03,8.90
2022,03,29,09,04,9.00
2022,03,29,09,05,9.00
2022,03,29,09,06,9.00
2022,03,29,09,07,9.10
2022,03,29,09,08,9.10
2022,03,29,09,09,9.10
2022,03,29,09,10,9.10
2022,03,29,09,11,9.20
2022,03,29,09,12,9.30
2022,03,29,09,13,9.30
2022,03,29,09,14,9.40
2022,03,29,09,15,9.40
2022,03,29,09,16,9.50
2022,03,29,09,17,9.50
2022,03,29,09,18,9.60
2022,03,29,09,19,9.60
2022,03,29,09,20,9.60
2022,03,29,09,21,9.70
2022,03,29,09,22,9.70
2022,03,29,09,23,9.70
2022,03,29,09,24,9.70
2022,03,29,09,25,9.70
2022,03,29,09,26,9.70
2022,03,29,09,27,9.70
2022,03,29,09,28,9.70
2022,03,29,09,29,9.80
2022,03,29,09,30,9.80
2022,03,29,09,31,9.80
2022,03,29,09,32,9.80
2022,03,29,09,33,9.80
2022,03,29,09,34,9.90
2022,03,29,09,35,9.90
2022,03,29,09,36,9.90
2022,03,29,09,37,10.00
2022,03,29,09,38,10.00
2022,03,29,09,39,10.00
2022,03,29,09,40,10.00
2022,03,29,09,41,10.10
2022,03,29,09,42,10.20
2022,03,29,09,43,10.20
2022,03,29,09,44,10.20
2022,03,29,09,45,10.20
2022,03,29,09,46,10.30
2022,03,29,09,47,10.30
2022,03,29,09,48,10.30
2022,03,29,09,49,10.40
2022,03,29,09,50,10.40
2022,03,29,09,51,10.50
2022,03,29,09,52,10.50
2022,03,29,09,53,10.60
2022,03,29,09,54,10.60
2022,03,29,09,55,10.60
2022,03,29,09,56,10.60
2022,03,29,09,57,10.60
2022,03,29,09,58,10.60
2022,03,29,09,59,10.70
2022,03,29,10,00,10.70
2022,03,29,10,01,10.70
2022,03,29,10,02,10.70
2022,03,29,10,03,10.80
2022,03,29,10,04,10.70
2022,03,29,10,05,10.70
2022,03,29,10,06,10.70
2022,03,29,10,07,10.60
2022,03,29,10,08,10.60
2022,03,29,10,09,10.50
2022,03,29,10,10,10.40
2022,03,29,10,11,10.40
2022,03,29,10,12,10.30
2022,03,29,10,13,10.30
2022,03,29,10,14,10.30
2022,03,29,10,15,10.20
2022,03,29,10,16,10.20
2022,03,29,10,17,10.10
2022,03,29,10,18,10.10
2022,03,29,10,19,10.00
2022,03,29,10,20,10.00
2022,03,29,10,21,10.00
2022,03,29,10,22,10.00
2022,03,29,10,23,10.00
2022,03,29,10,24,9.90
2022,03,29,10,25,9.90
2022,03,29,10,26,9.80
2022,03,29,10,27,9.70
2022,03,29,10,28,9.70
2022,03,29,10,29,9.70
2022,03,29,10,30,9.60
2022,03,29,10,31,9.60
2022,03,29,10,32,9.70
2022,03,29,10,33,9.70
2022,03,29,10,34,9.70
2022,03,29,10,35,9.80
2022,03,29,10,36,9.90
2022,03,29,10,37,9.90
2022,03,29,10,38,10.00
2022,03,29,10,39,10.10
2022,03,29,10,40,10.20
2022,03,29,10,41,10.30
2022,03,29,10,42,10.40
2022,03,29,10,43,10.50
2022,03,29,10,44,10.50
2022,03,29,10,45,10.60
2022,03,29,10,46,10.70
2022,03,29,10,47,10.70
2022,03,29,10,48,10.70
2022,03,29,10,49,10.80
2022,03,29,10,50,10.80
2022,03,29,10,51,10.70
2022,03,29,10,52,10.70
2022,03,29,10,53,10.60
2022,03,29,10,54,10.50
2022,03,29,10,55,10.50
2022,03,29,10,56,10.40
2022,03,29,10,57,10.40
2022,03,29,10,58,10.40
2022,03,29,10,59,10.40
2022,03,29,11,00,10.40
2022,03,29,11,01,10.40
2022,03,29,11,02,10.40
2022,03,29,11,03,10.40
2022,03,29,11,04,10.40
2022,03,29,11,05,10.30
2022,03,29,11,06,10.20
2022,03,29,11,07,10.20
2022,03,29,11,08,10.20
2022,03,29,11,09,10.20
2022,03,29,11,10,10.20
2022,03,29,11,11,10.30
2022,03,29,11,12,10.30
2022,03,29,11,13,10.40
2022,03,29,11,14,10.50
2022,03,29,11,15,10.60
2022,03,29,11,16,10.70
2022,03,29,11,17,10.70
2022,03,29,11,18,10.80
2022,03,29,11,19,10.80
2022,03,29,11,20,10.90
2022,03,29,11,21,10.90
2022,03,29,11,22,10.90
2022,03,29,11,23,11.00
2022,03,29,11,24,11.00
2022,03,29,11,25,11.00
2022,03,29,11,26,11.10
2022,03,29,11,27,11.10
2022,03,29,11,28,11.10
2022,03,29,11,29,11.20
2022,03,29,11,30,11.20
2022,03,29,11,31,11.30
2022,03,29,11,32,11.30
2022,03,29,11,33,11.30
2022,03,29,11,34,11.40
2022,03,29,11,35,11.50
2022,03,29,11,36,11.50
2022,03,29,11,37,11.60
2022,03,29,11,38,11.70
2022,03,29,11,39,11.70
2022,03,29,11,40,11.70
2022,03,29,11,41,11.70
2022,03,29,11,42,11.70
2022,03,29,11,43,11.70
2022,03,29,11,44,11.70
2022,03,29,11,45,11.70
2022,03,29,11,46,11.70
2022,03,29,11,47,11.70
2022,03,29,11,48,11.80
2022,03,29,11,49,11.80
2022,03,29,11,50,11.80
2022,03,29,11,51,11.80
2022,03,29,11,52,11.80
2022,03,29,11,53,11.90
2022,03,29,11,54,11.90
2022,03,29,11,55,11.90
2022,03,29,11,56,11.90
2022,03,29,11,57,11.90
2022,03,29,11,58,11.90
2022,03,29,11,59,11.90
2022,03,29,12,00,11.90
2022,03,29,12,01,11.80
2022,03,29,12,02,11.80
2022,03,29,12,03,11.80
2022,03,29,12,04,11.80
2022,03,29,12,05,11.80
2022,03,29,12,06,11.80
2022,03,29,12,07,11.80
2022,03,29,12,08,11.80
2022,03,29,12,09,11.80
2022,03,29,12,10,11.80
2022,03,29,12,11,11.80
2022,03,29,12,12,11.70
2022,03,29,12,13,11.70
2022,03,29,12,14,11.60
2022,03,29,12,15,11.50
2022,03,29,12,16,11.40
2022,03,29,12,17,11.40
2022,03,29,12,18,11.30
2022,03,29,12,19,11.30
2022,03,29,12,20,11.20
2022,03,29,12,21,11.30
2022,03,29,12,22,11.30
2022,03,29,12,23,11.30
2022,03,29,12,24,11.30
2022,03,29,12,25,11.30
2022,03,29,12,26,11.30
2022,03,29,12,27,11.30
2022,03,29,12,28,11.40
2022,03,29,12,29,11.40
2022,03,29,12,30,11.40
2022,03,29,12,31,11.40
2022,03,29,12,32,11.40
2022,03,29,12,33,11.40
2022,03,29,12,34,11.50
2022,03,29,12,35,11.50
2022,03,29,12,36,11.40
2022,03,29,12,37,11.40
2022,03,29,12,38,11.40
2022,03,29,12,39,11.40
2022,03,29,12,40,11.40
2022,03,29,12,41,11.40
2022,03,29,12,42,11.40
2022,03,29,12,43,11.40
2022,03,29,12,44,11.50
2022,03,29,12,45,11.60
2022,03,29,12,46,11.70
2022,03,29,12,47,11.70
2022,03,29,12,48,11.70
2022,03,29,12,49,11.80
2022,03,29,12,50,11.80
2022,03,29,12,51,11.80
2022,03,29,12,52,11.80
2022,03,29,12,53,11.80
2022,03,29,12,54,11.70
2022,03,29,12,55,11.70
2022,03,29,12,56,11.60
2022,03,29,12,57,11.60
2022,03,29,12,58,11.60
2022,03,29,12,59,11.50
2022,03,29,13,00,11.50
2022,03,29,13,01,11.50
2022,03,29,13,02,11.50
2022,03,29,13,03,11.60
2022,03,29,13,04,11.60
2022,03,29,13,05,11.50
2022,03,29,13,06,11.50
2022,03,29,13,07,11.40
2022,03,29,13,08,11.50
2022,03,29,13,09,11.50
2022,03,29,13,10,11.60
2022,03,29,13,11,11.60
2022,03,29,13,12,11.60
2022,03,29,13,13,11.60
2022,03,29,13,14,11.60
2022,03,29,13,15,11.50
2022,03,29,13,16,11.40
2022,03,29,13,17,11.40
2022,03,29,13,18,11.40
2022,03,29,13,19,11.40
2022,03,29,13,20,11.40
2022,03,29,13,21,11.40
2022,03,29,13,22,11.40
2022,03,29,13,23,11.30
2022,03,29,13,24,11.30
2022,03,29,13,25,11.30
2022,03,29,13,26,11.30
2022,03,29,13,27,11.30
2022,03,29,13,28,11.30
2022,03,29,13,29,11.30
2022,03,29,13,30,11.30
2022,03,29,13,31,11.30
2022,03,29,13,32,11.30
2022,03,29,13,33,11.40
2022,03,29,13,34,11.30
2022,03,29,13,35,11.30
2022,03,29,13,36,11.30
2022,03,29,13,37,11.30
2022,03,29,13,38,11.30
2022,03,29,13,39,11.30
2022,03,29,13,40,11.40
2022,03,29,13,41,11.40
2022,03,29,13,42,11.40
2022,03,29,13,43,11.40
2022,03,29,13,44,11.40
2022,03,29,13,45,11.40
2022,03,29,13,46,11.40
2022,03,29,13,47,11.40
2022,03,29,13,48,11.30
2022,03,29,13,49,11.30
2022,03,29,13,50,11.30
2022,03,29,13,51,11.20
2022,03,29,13,52,11.20
2022,03,29,13,53,11.30
2022,03,29,13,54,11.30
2022,03,29,13,55,11.30
2022,03,29,13,56,11.40
2022,03,29,13,57,11.30
2022,03,29,13,58,11.30
2022,03,29,13,59,11.30
2022,03,29,14,00,11.30
2022,03,29,14,01,11.30
2022,03,29,14,02,11.20
2022,03,29,14,03,11.20
2022,03,29,14,04,11.10
2022,03,29,14,05,11.10
2022,03,29,14,06,11.00
2022,03,29,14,07,10.90
2022,03,29,14,08,10.90
2022,03,29,14,09,10.90
2022,03,29,14,10,11.00
2022,03,29,14,11,11.00
2022,03,29,14,12,11.00
2022,03,29,14,13,11.10
2022,03,29,14,14,11.10
2022,03,29,14,15,11.20
2022,03,29,14,16,11.20
2022,03,29,14,17,11.10
2022,03,29,14,18,11.10
2022,03,29,14,19,11.00
2022,03,29,14,20,10.90
2022,03,29,14,21,10.80
2022,03,29,14,22,10.80
2022,03,29,14,23,10.80
2022,03,29,14,24,10.70
2022,03,29,14,25,10.70
2022,03,29,14,26,10.70
2022,03,29,14,27,10.70
2022,03,29,14,28,10.60
2022,03,29,14,29,10.60
2022,03,29,14,30,10.60
2022,03,29,14,31,10.60
2022,03,29,14,32,10.60
2022,03,29,14,33,10.60
2022,03,29,14,34,10.60
2022,03,29,14,35,10.60
2022,03,29,14,36,10.60
2022,03,29,14,37,10.60
2022,03,29,14,38,10.60
2022,03,29,14,39,10.70
2022,03,29,14,40,10.70
2022,03,29,14,41,10.70
2022,03,29,14,42,10.70
2022,03,29,14,43,10.70
2022,03,29,14,44,10.80
2022,03,29,14,45,10.80
2022,03,29,14,46,10.80
2022,03,29,14,47,10.70
2022,03,29,14,48,10.70
2022,03,29,14,49,10.80
2022,03,29,14,50,10.80
2022,03,29,14,51,10.80
2022,03,29,14,52,10.80
2022,03,29,14,53,10.80
2022,03,29,14,54,10.80
2022,03,29,14,55,10.80
2022,03,29,14,56,10.80
2022,03,29,14,57,10.80
2022,03,29,14,58,10.80
2022,03,29,14,59,10.80
2022,03,29,15,00,10.80
2022,03,29,15,01,10.80
2022,03,29,15,02,10.80
2022,03,29,15,03,10.80
2022,03,29,15,04,10.80
2022,03,29,15,05,10.80
2022,03,29,15,06,10.80
2022,03,29,15,07,10.80
2022,03,29,15,08,10.70
2022,03,29,15,09,10.70
2022,03,29,15,10,10.80
2022,03,29,15,11,10.80
2022,03,29,15,12,10.80
2022,03,29,15,13,10.80
2022,03,29,15,14,10.90
2022,03,29,15,15,10.90
2022,03,29,15,16,10.90
2022,03,29,15,17,10.90
2022,03,29,15,18,10.90
2022,03,29,15,19,10.90
2022,03,29,15,20,10.90
2022,03,29,15,21,10.90
2022,03,29,15,22,10.90
2022,03,29,15,23,10.90
2022,03,29,15,24,10.90
2022,03,29,15,25,10.90
2022,03,29,15,26,10.90
2022,03,29,15,27,10.90
2022,03,29,15,28,10.90
2022,03,29,15,29,10.90
2022,03,29,15,30,10.90
2022,03,29,15,31,10.90
2022,03,29,15,32,11.00
2022,03,29,15,33,11.00
2022,03,29,15,34,11.00
2022,03,29,15,35,11.10
2022,03,29,15,36,11.10
2022,03,29,15,37,11.20
2022,03,29,15,38,11.20
2022,03,29,15,39,11.20
2022,03,29,15,40,11.20
2022,03,29,15,41,11.20
2022,03,29,15,42,11.20
2022,03,29,15,43,11.20
2022,03,29,15,44,11.20
2022,03,29,15,45,11.20
2022,03,29,15,46,11.20
2022,03,29,15,47,11.20
2022,03,29,15,48,11.30
2022,03,29,15,49,11.30
2022,03,29,15,50,11.30
2022,03,29,15,51,11.40
2022,03,29,15,52,11.40
2022,03,29,15,53,11.40
2022,03,29,15,54,11.40
2022,03,29,15,55,11.50
2022,03,29,15,56,11.60
2022,03,29,15,57,11.60
2022,03,29,15,58,11.60
2022,03,29,15,59,11.60
2022,03,29,16,00,11.70
2022,03,29,16,01,11.70
2022,03,29,16,02,11.70
2022,03,29,16,03,11.80
2022,03,29,16,04,11.80
2022,03,29,16,05,11.80
2022,03,29,16,06,11.80
2022,03,29,16,07,11.90
2022,03,29,16,08,11.90
2022,03,29,16,09,11.90
2022,03,29,16,10,12.00
2022,03,29,16,11,12.00
2022,03,29,16,12,12.10
2022,03,29,16,13,12.10
2022,03,29,16,14,12.10
2022,03,29,16,15,12.10
2022,03,29,16,16,12.20
2022,03,29,16,17,12.20
2022,03,29,16,18,12.20
2022,03,29,16,19,12.20
2022,03,29,16,20,12.20
2022,03,29,16,21,12.20
2022,03,29,16,22,12.20
2022,03,29,16,23,12.20
2022,03,29,16,24,12.20
2022,03,29,16,25,12.20
2022,03,29,16,26,12.20
2022,03,29,16,27,12.20
2022,03,29,16,28,12.20
2022,03,29,16,29,12.20
2022,03,29,16,30,12.20
2022,03,29,16,31,12.20
2022,03,29,16,32,12.20
2022,03,29,16,33,12.20
2022,03,29,16,34,12.30
2022,03,29,16,35,12.30
2022,03,29,16,36,12.30
2022,03,29,16,37,12.30
2022,03,29,16,38,12.30
2022,03,29,16,39,12.30
2022,03,29,16,40,12.30
2022,03,29,16,41,12.30
2022,03,29,16,42,12.30
2022,03,29,16,43,12.30
2022,03,29,16,44,12.40
2022,03,29,16,45,12.40
2022,03,29,16,46,12.50
2022,03,29,16,47,12.50
2022,03,29,16,48,12.60
2022,03,29,16,49,12.60
2022,03,29,16,50,12.70
2022,03,29,16,51,12.80
2022,03,29,16,52,12.80
2022,03,29,16,53,12.80
2022,03,29,16,54,12.90
2022,03,29,16,55,12.90
2022,03,29,16,56,12.90
2022,03,29,16,57,12.90
2022,03,29,16,58,12.90
2022,03,29,16,59,13.00
2022,03,29,17,00,13.00
2022,03,29,17,01,13.10
2022,03,29,17,02,13.10
2022,03,29,17,03,13.10
2022,03,29,17,04,13.10
2022,03,29,17,05,13.20
2022,03,29,17,06,13.20
2022,03,29,17,07,13.20
2022,03,29,17,08,13.20
2022,03,29,17,09,13.20
2022,03,29,17,10,13.10
2022,03,29,17,11,13.20
2022,03,29,17,12,13.20
2022,03,29,17,13,13.20
2022,03,29,17,14,13.20
2022,03,29,17,15,13.20
2022,03,29,17,16,13.20
2022,03,29,17,17,13.20
2022,03,29,17,18,13.20
2022,03,29,17,19,13.30
2022,03,29,17,20,13.30
2022,03,29,17,21,13.20
2022,03,29,17,22,13.20
2022,03,29,17,23,13.20
2022,03,29,17,24,13.20
2022,03,29,17,25,13.10
2022,03,29,17,26,13.10
2022,03,29,17,27,13.10
2022,03,29,17,28,13.10
2022,03,29,17,29,13.00
2022,03,29,17,30,12.90
2022,03,29,17,31,12.90
2022,03,29,17,32,12.80
2022,03,29,17,33,12.80
2022,03,29,17,34,12.80
2022,03,29,17,35,12.70
2022,03,29,17,36,12.70
2022,03,29,17,37,12.70
2022,03,29,17,38,12.70
2022,03,29,17,39,12.60
2022,03,29,17,40,12.60
2022,03,29,17,41,12.60
2022,03,29,17,42,12.60
2022,03,29,17,43,12.60
2022,03,29,17,44,12.60
2022,03,29,17,45,12.60